OneWeb SL0567

operational
NORAD ID: 55147 Int'l Des: 2023-004 Owner: ONEWEBN Country: UK Constellation: oneweb
LEOCIRCULARPOLARONEWEB_TYPE

OneWeb SL0567について

説明を読み込み中...

リアルタイム位置

3D地球を読み込み中...

次回通過

高度履歴

Altitude vs Time

uPlot chart will show altitude changes over time

軌道要素

1 55147U 23004H 25304.67328933 .00000039 00000-0 66701-4 0 9992
2 55147 87.9214 20.8738 0002233 96.5771 263.5616 13.18686558139584
Epoch: Oct 31, 2025 • Age: 20 hours

現在のステータス

高度 1201.9 km
速度 7.26 km/s
衛星直下点 86.82°N, 70.78°W
打ち上げ日 Jan 10, 2023
運用期間 2.8 years
タイプ internet

技術仕様

分類 Payload
質量 148.00 kg
乾燥質量 140.00 kg
総質量 148.00 kg
長さ 1.30 m
直径 1.00 m
スパン 5.00 m
形状 Trapezoid+2 pan
製造者 ONEWUS
バスタイプ ARROW
フェーズステータス In Orbit
所有者/国 ONEWEBN/UK

大規模コンステレーション

Loading constellations...